Date String (YYYY-MM-DD hh:mm:ss) UTC,Instrument flags,Ambient pressure (hPa),Sample flow (lpm),Bypass flow (lpm),Sample temperature (°C),Ambient temperature (°C),ASC tube jacket temperature (°C),LED temperature (°C),Box temperature (°C),Sample RH (%),Span deviation,Mass concentration (μg/m³),Mass concentration (μg/m³),Mass concentration (μg/m³)
DateTimeUTC,F1_M11,P_M11,Q1_M11,Q2_M11,T1_M11,T2_M11,T3_M11,T4_M11,T5_M11,U1_M11,ZSPAN_M11,X0_M11,X2_M11,X1_M11
2022-03-09 14:00:00,,0820.3,5.00,0.00,22.7,22.5,00.0,31.8,24.4,07.3,0000.0,0004.78,0001.44,0001.12
2022-03-09 14:01:00,,0820.3,5.01,0.00,22.9,23.3,00.0,31.9,24.7,07.3,0000.0,0004.32,0001.43,0001.12
2022-03-09 14:02:00,,0820.3,4.98,0.00,23.0,23.4,00.0,31.9,24.8,07.2,0000.0,0005.31,0001.42,0001.12
2022-03-09 14:03:00,,0820.3,5.00,0.00,22.9,23.1,00.0,31.9,24.7,07.2,0000.0,0005.45,0001.43,0001.11
2022-03-09 14:04:00,,0820.3,5.00,0.00,22.9,22.7,00.0,31.9,24.6,07.2,0000.0,0005.44,0001.44,0001.13
2022-03-09 14:05:00,,0820.3,5.01,0.00,22.8,22.3,00.0,31.9,24.5,07.2,0000.0,0005.41,0001.44,0001.13
2022-03-09 14:06:00,,0820.3,5.00,0.00,22.8,22.1,00.0,31.8,24.3,07.2,0000.0,0005.41,0001.44,0001.14
2022-03-09 14:07:00,,0820.3,5.01,0.00,22.7,21.7,00.0,31.8,24.2,07.2,0000.0,0004.99,0001.43,0001.14
2022-03-09 14:08:00,,0820.3,5.00,0.00,22.6,21.5,00.0,31.8,24.1,07.2,0000.0,0004.94,0001.42,0001.14
2022-03-09 14:09:00,,0820.3,5.01,0.00,22.6,21.5,00.0,31.7,24.1,07.2,0000.0,0004.96,0001.42,0001.14
2022-03-09 14:10:00,,0820.3,5.00,0.00,22.6,22.3,00.0,31.8,24.3,07.2,0000.0,0004.68,0001.41,0001.14
2022-03-09 14:11:00,,0820.3,5.00,0.00,22.8,23.1,00.0,31.8,24.5,07.1,0000.0,0003.57,0001.39,0001.15
2022-03-09 14:12:00,,0820.4,5.00,0.00,22.9,23.3,00.0,31.8,24.7,07.0,0000.0,0003.60,0001.41,0001.15
2022-03-09 14:13:00,,0820.3,5.00,0.00,22.8,22.9,00.0,31.8,24.6,07.0,0000.0,0002.80,0001.46,0001.16
2022-03-09 14:14:00,,0820.3,5.00,0.00,22.8,22.5,00.0,31.8,24.5,07.0,0000.0,0002.30,0001.48,0001.17
2022-03-09 14:15:00,,0820.4,4.99,0.00,22.7,22.2,00.0,31.8,24.3,07.0,0000.0,0002.26,0001.47,0001.17
2022-03-09 14:16:00,,0820.4,5.01,0.00,22.6,21.8,00.0,31.7,24.2,07.0,0000.0,0002.31,0001.49,0001.17
2022-03-09 14:17:00,,0820.4,4.99,0.00,22.5,21.5,00.0,31.7,24.1,07.0,0000.0,0002.32,0001.49,0001.17
2022-03-09 14:18:00,,0820.4,5.02,0.00,22.4,21.3,00.0,31.7,23.9,07.1,0000.0,0002.28,0001.48,0001.18
2022-03-09 14:19:00,,0820.6,4.99,0.00,22.4,21.7,00.0,31.6,24.0,07.1,0000.0,0002.26,0001.49,0001.18
2022-03-09 14:20:00,,0820.6,5.01,0.00,22.6,22.6,00.0,31.7,24.3,07.1,0000.0,0002.23,0001.49,0001.18
2022-03-09 14:21:00,,0820.6,5.00,0.00,22.7,23.3,00.0,31.7,24.6,07.1,0000.0,0002.21,0001.49,0001.19
2022-03-09 14:22:00,,0820.6,4.99,0.00,22.8,23.2,00.0,31.7,24.6,07.1,0000.0,0002.20,0001.49,0001.19
2022-03-09 14:23:00,,0820.6,5.00,0.00,22.8,22.7,00.0,31.7,24.5,07.1,0000.0,0002.24,0001.51,0001.21
2022-03-09 14:24:00,,0820.6,4.99,0.00,22.7,22.2,00.0,31.7,24.4,07.1,0000.0,0002.18,0001.48,0001.21
2022-03-09 14:25:00,,0820.7,5.01,0.00,22.6,21.8,00.0,31.7,24.2,07.1,0000.0,0002.09,0001.47,0001.20
2022-03-09 14:26:00,,0820.6,5.00,0.00,22.6,21.6,00.0,31.6,24.1,07.1,0000.0,0002.11,0001.47,0001.21
2022-03-09 14:27:00,,0820.6,4.99,0.00,22.5,21.4,00.0,31.6,24.0,07.2,0000.0,0002.19,0001.50,0001.22
2022-03-09 14:28:00,,0820.5,5.01,0.00,22.4,21.3,00.0,31.6,24.0,07.2,0000.0,0002.25,0001.53,0001.22
2022-03-09 14:29:00,,0820.6,4.99,0.00,22.5,22.0,00.0,31.6,24.1,07.2,0000.0,0002.27,0001.54,0001.23
2022-03-09 14:30:00,,0820.6,5.01,0.00,22.6,22.8,00.0,31.6,24.4,07.1,0000.0,0002.36,0001.57,0001.24
2022-03-09 14:31:00,,0820.6,5.00,0.00,22.7,23.2,00.0,31.7,24.6,07.1,0000.0,0002.39,0001.56,0001.25
2022-03-09 14:32:00,,0820.6,4.99,0.00,22.8,22.9,00.0,31.7,24.6,07.1,0000.0,0002.37,0001.55,0001.24
2022-03-09 14:33:00,,0820.7,5.01,0.00,22.7,22.5,00.0,31.7,24.5,07.1,0000.0,0002.34,0001.54,0001.24
2022-03-09 14:34:00,,0820.7,5.00,0.00,22.7,22.2,00.0,31.7,24.3,07.1,0000.0,0002.32,0001.53,0001.23
2022-03-09 14:35:00,,0820.8,5.00,0.00,22.6,21.8,00.0,31.6,24.2,07.1,0000.0,0002.29,0001.52,0001.22
2022-03-09 14:36:00,,0820.8,4.99,0.00,22.5,21.6,00.0,31.6,24.1,07.1,0000.0,0002.32,0001.51,0001.23
2022-03-09 14:37:00,,0820.8,5.01,0.00,22.5,21.4,00.0,31.6,24.0,07.1,0000.0,0002.38,0001.52,0001.23
2022-03-09 14:38:00,,0820.8,5.00,0.00,22.4,21.4,00.0,31.6,24.0,07.2,0000.0,0002.32,0001.50,0001.23
2022-03-09 14:39:00,,0820.8,5.00,0.00,22.5,22.0,00.0,31.6,24.1,07.2,0000.0,0002.33,0001.51,0001.23
2022-03-09 14:40:00,,0820.8,4.99,0.00,22.6,22.9,00.0,31.6,24.4,07.1,0000.0,0002.50,0001.57,0001.24
2022-03-09 14:41:00,,0820.8,5.01,0.00,22.7,23.4,00.0,31.6,24.6,07.1,0000.0,0002.47,0001.57,0001.23
2022-03-09 14:42:00,,0820.7,4.99,0.00,22.8,23.0,00.0,31.7,24.6,07.1,0000.0,0002.40,0001.57,0001.24
2022-03-09 14:43:00,,0820.7,5.00,0.00,22.7,22.6,00.0,31.7,24.5,07.1,0000.0,0002.42,0001.58,0001.25
2022-03-09 14:44:00,,0820.7,5.00,0.00,22.7,22.3,00.0,31.6,24.4,07.1,0000.0,0002.58,0001.63,0001.25
2022-03-09 14:45:00,,0820.7,5.01,0.00,22.6,21.9,00.0,31.6,24.3,07.2,0000.0,0002.62,0001.65,0001.26
2022-03-09 14:46:00,,0820.8,4.99,0.00,22.6,21.7,00.0,31.6,24.2,07.2,0000.0,0002.68,0001.68,0001.28
2022-03-09 14:47:00,,0820.8,5.02,0.00,22.5,21.5,00.0,31.6,24.1,07.3,0000.0,0002.69,0001.69,0001.28
2022-03-09 14:48:00,,0820.8,5.00,0.00,22.4,21.4,00.0,31.6,24.0,07.3,0000.0,0002.62,0001.69,0001.29
2022-03-09 14:49:00,,0820.9,4.99,0.00,22.4,21.5,00.0,31.5,24.0,07.2,0000.0,0002.74,0001.72,0001.31
2022-03-09 14:50:00,,0820.9,5.00,0.00,22.5,22.2,00.0,31.6,24.1,07.2,0000.0,0002.77,0001.72,0001.32
2022-03-09 14:51:00,,0820.9,5.02,0.00,22.6,23.0,00.0,31.6,24.4,07.2,0000.0,0002.69,0001.69,0001.34
2022-03-09 14:52:00,,0820.9,5.00,0.00,22.7,23.2,00.0,31.6,24.5,07.2,0000.0,0002.81,0001.71,0001.35
2022-03-09 14:53:00,,0820.9,4.99,0.00,22.7,22.9,00.0,31.6,24.5,07.2,0000.0,0002.94,0001.75,0001.37
2022-03-09 14:54:00,,0820.9,5.00,0.00,22.7,22.6,00.0,31.6,24.4,07.2,0000.0,0003.15,0001.82,0001.38
2022-03-09 14:55:00,,0821.0,5.00,0.00,22.6,22.2,00.0,31.6,24.3,07.2,0000.0,0003.16,0001.82,0001.39
2022-03-09 14:56:00,,0821.0,4.99,0.00,22.6,21.9,00.0,31.6,24.2,07.1,0000.0,0003.92,0001.82,0001.40
2022-03-09 14:57:00,,0820.9,5.01,0.00,22.5,21.6,00.0,31.6,24.1,07.2,0000.0,0004.03,0001.84,0001.40
2022-03-09 14:58:00,,0820.9,4.99,0.00,22.4,21.5,00.0,31.5,24.0,07.3,0000.0,0003.98,0001.84,0001.41
2022-03-09 14:59:00,,0820.9,5.01,0.00,22.4,21.3,00.0,31.5,23.9,07.4,0000.0,0004.03,0001.86,0001.41
